一网星座-0182星 (ONEWEB-0182 )

导读 | 星芒AI

ONEWEB-0182 是 OneWeb 卫星星座计划中的一颗低轨通信卫星,旨在为全球提供高速互联网服务。该卫星由 OneWeb 公司部署,采用标准化设计,以降低制造和发射成本。它运行在约 1200 公里的近地轨道,与其他卫星协同工作,构建覆盖全球的宽带网络。该计划特别关注偏远和农村地区,以弥合数字鸿沟。ONEWEB-0182 的发射和运行是 OneWeb 扩展其卫星通信能力、实现全球连接目标的重要一步。

基本信息
目录编号:
48228
目录名称:
ONEWEB-0182
国际标识:
2021-031U
轨道中心:
EARTH
卫星名称:
一网星座-0182星
卫星全名:
一网星座-0182星 (ONEWEB-0182 )
卫星状态:
在轨 (已飞行1695 天)
发射日期:
2021-04-25 UTC
国别 :
英国 (GB)
星等 :
--
轨道信息
数据来源 国际轨道数据 AOE轨道数据
星历时间 2025-12-15T05:37:27+0800
21小时前
查看轨道信息
2025-12-13T07:00:00+0800
2天前
查看轨道信息
半长轴 7583.927km 7583.967km
偏心率 0.0001742 0.0001323
轨道倾角 87.898° 87.899°
近地点辐角 92.599° 92.531°
升交点赤经 326.428° 326.815°
平近点角 267.534° 79.642°
近地点 1204.47km 1204.828km
远地点 1207.114km 1206.836km
周期 109.547分钟 109.548分钟
每日圈数 13.145031 13.144925
详细信息
平衡模式:
三轴稳定
覆盖范围:
全球
运营商:
一网卫星公司
运营商所在国:
英国
制造商(研发单位):
一网卫星公司
制造商所在国:
英国
使用方式:
暂无
卫星简介
OneWeb卫星网络由648颗重约125公斤的微型卫星组成,运行在1200公里的轨道上。 每颗卫星都能够提供至少每秒8千兆位的吞吐量,以使用其高吞吐量的Ku频段有效载荷为家庭和移动平台提供互联网接入。该卫星仍在工作。
2D轨道图
3D轨道图
轨道高度分析图
轨道倾角分析图
轨道综合分析图
查看轨道综合分析图